N6942M KSAN-

Flight info

Callsign N6942M
Flight time N/A
Altitude VFR
Route VFR N
Aircraft C172/L-VGD/C

Departure

Time 2026-05-03 23:32
Airport San Diego International Airport (KSAN)

Arrival

Time N/A
Airport -
Time Latitude Longitude Altitude Speed Heading
2026-05-03 23:32 32.73318 -117.15185 900 ft 117 kts 183°
2026-05-03 23:32 32.72768 -117.15665 740 ft 100 kts 252°
2026-05-03 23:33 32.72753 -117.16595 457 ft 132 kts 286°
2026-05-03 23:33 32.73038 -117.17655 114 ft 127 kts 288°
2026-05-03 23:33 32.73257 -117.18536 15 ft 93 kts 287°
2026-05-03 23:33 32.73420 -117.19239 129 ft 89 kts 286°
2026-05-03 23:34 32.73575 -117.19901 423 ft 80 kts 289°
2026-05-03 23:34 32.73897 -117.20428 651 ft 80 kts 322°
2026-05-03 23:34 32.74352 -117.20813 868 ft 82 kts 318°
2026-05-03 23:34 32.74845 -117.21222 1091 ft 89 kts 322°
2026-05-03 23:35 32.75389 -117.21620 1320 ft 94 kts 322°
2026-05-03 23:35 32.75978 -117.22032 1434 ft 102 kts 328°
2026-05-03 23:35 32.76635 -117.22487 1471 ft 112 kts 323°
2026-05-03 23:35 32.77294 -117.23008 1567 ft 115 kts 321°
2026-05-03 23:36 32.77975 -117.23547 1606 ft 119 kts 324°
2026-05-03 23:36 32.78681 -117.24057 1600 ft 120 kts 323°
2026-05-03 23:36 32.79347 -117.24614 1658 ft 116 kts 323°
2026-05-03 23:36 32.80057 -117.25135 1637 ft 121 kts 327°
2026-05-03 23:37 32.80833 -117.25522 1640 ft 124 kts 332°
2026-05-03 23:37 32.81624 -117.25989 1450 ft 126 kts 329°
2026-05-03 23:37 32.82357 -117.26442 1385 ft 116 kts 330°
2026-05-03 23:37 32.83130 -117.26799 1201 ft 122 kts 335°
2026-05-03 23:38 32.83910 -117.27087 1145 ft 117 kts 343°
2026-05-03 23:38 32.84772 -117.27148 822 ft 133 kts
2026-05-03 23:38 32.85650 -117.26830 630 ft 132 kts 18°
2026-05-03 23:38 32.86432 -117.26877 654 ft 107 kts 303°
2026-05-03 23:39 32.86210 -117.27635 440 ft 118 kts 209°
2026-05-03 23:39 32.85476 -117.27929 357 ft 103 kts 205°
2026-05-03 23:39 32.84801 -117.28270 395 ft 110 kts 206°
2026-05-03 23:39 32.84064 -117.28432 379 ft 109 kts 189°
2026-05-03 23:40 32.83303 -117.28476 278 ft 108 kts 182°
2026-05-03 23:40 32.82561 -117.28421 298 ft 101 kts 189°
2026-05-03 23:40 32.81917 -117.28322 406 ft 100 kts 153°
2026-05-03 23:40 32.81252 -117.28008 450 ft 108 kts 167°
2026-05-03 23:41 32.80524 -117.27529 522 ft 127 kts 153°
2026-05-03 23:41 32.79702 -117.27090 526 ft 133 kts 163°
2026-05-03 23:41 32.78810 -117.26859 621 ft 129 kts 175°
2026-05-03 23:41 32.77913 -117.26733 695 ft 132 kts 174°
2026-05-03 23:42 32.76994 -117.26423 444 ft 145 kts 168°
2026-05-03 23:42 32.76073 -117.26260 484 ft 126 kts 179°
2026-05-03 23:42 32.75219 -117.26230 489 ft 126 kts 186°
2026-05-03 23:42 32.74330 -117.26245 477 ft 130 kts 184°
2026-05-03 23:43 32.73427 -117.26250 490 ft 129 kts 186°
2026-05-03 23:43 32.72519 -117.26275 455 ft 131 kts 184°
2026-05-03 23:43 32.71645 -117.26303 434 ft 123 kts 188°
2026-05-03 23:43 32.70795 -117.26330 462 ft 128 kts 184°
2026-05-03 23:44 32.69887 -117.26293 458 ft 128 kts 179°
2026-05-03 23:44 32.68988 -117.26191 443 ft 132 kts 176°
2026-05-03 23:44 32.68081 -117.26015 393 ft 135 kts 174°
2026-05-03 23:44 32.67168 -117.25811 443 ft 129 kts 171°
2026-05-03 23:45 32.66312 -117.25583 537 ft 125 kts 169°
2026-05-03 23:45 32.65452 -117.25372 500 ft 130 kts 178°
2026-05-03 23:45 32.64557 -117.25256 397 ft 124 kts 180°
2026-05-03 23:45 32.63708 -117.25198 387 ft 124 kts 181°
2026-05-03 23:46 32.62847 -117.25128 417 ft 120 kts 181°
2026-05-03 23:46 32.62018 -117.25134 352 ft 120 kts 187°
2026-05-03 23:46 32.61366 -117.24752 567 ft 105 kts 104°
2026-05-03 23:46 32.61758 -117.24307 551 ft 92 kts 341°
2026-05-03 23:47 32.62440 -117.24649 454 ft 113 kts 332°
2026-05-03 23:47 32.63106 -117.25059 261 ft 95 kts 323°
2026-05-03 23:47 32.63659 -117.25113 298 ft 105 kts 49°
2026-05-03 23:47 32.64143 -117.25105 297 ft 87 kts 277°
2026-05-03 23:48 32.63678 -117.25502 442 ft 103 kts 142°
2026-05-03 23:48 32.63939 -117.24964 389 ft 109 kts 350°
2026-05-03 23:48 32.64718 -117.25105 418 ft 115 kts 355°
2026-05-03 23:48 32.65533 -117.25076 442 ft 120 kts 356°
2026-05-03 23:49 32.66373 -117.25119 450 ft 121 kts 351°
2026-05-03 23:49 32.67192 -117.25259 482 ft 120 kts 345°
2026-05-03 23:49 32.68007 -117.25417 563 ft 118 kts 346°
2026-05-03 23:49 32.68845 -117.25581 535 ft 123 kts 349°
2026-05-03 23:50 32.69707 -117.25688 531 ft 127 kts 353°
2026-05-03 23:50 32.70293 -117.25727 529 ft 127 kts 353°
2026-05-03 23:50 32.71443 -117.25783 507 ft 118 kts 355°
2026-05-03 23:50 32.72243 -117.25818 403 ft 114 kts 356°
2026-05-03 23:51 32.73027 -117.25809 435 ft 115 kts 358°
2026-05-03 23:51 32.73852 -117.25747 464 ft 121 kts 359°
2026-05-03 23:51 32.74696 -117.25663 416 ft 121 kts
2026-05-03 23:51 32.75503 -117.25679 364 ft 111 kts 351°
2026-05-03 23:52 32.76258 -117.25665 446 ft 104 kts 18°
2026-05-03 23:52 32.76500 -117.24863 580 ft 126 kts 106°
2026-05-03 23:52 32.76158 -117.23902 691 ft 129 kts 118°
2026-05-03 23:52 32.75725 -117.22935 703 ft 135 kts 120°
2026-05-03 23:53 32.75319 -117.21932 743 ft 132 kts 111°
2026-05-03 23:53 32.75070 -117.20911 895 ft 129 kts 105°
2026-05-03 23:53 32.74872 -117.19873 996 ft 129 kts 103°
2026-05-03 23:53 32.74675 -117.18823 1021 ft 132 kts 104°
2026-05-03 23:54 32.74472 -117.17761 1104 ft 136 kts 106°
2026-05-03 23:54 32.74234 -117.16662 1142 ft 136 kts 107°
2026-05-03 23:54 32.73977 -117.15572 1159 ft 136 kts 107°
2026-05-03 23:54 32.73660 -117.14569 1250 ft 127 kts 142°
2026-05-03 23:55 32.72853 -117.14219 1199 ft 122 kts 182°
2026-05-03 23:55 32.72249 -117.14742 1089 ft 113 kts 268°
2026-05-03 23:55 32.72519 -117.15700 775 ft 131 kts 291°
2026-05-03 23:55 32.72790 -117.16669 449 ft 121 kts 284°
2026-05-03 23:56 32.73024 -117.17586 90 ft 111 kts 285°
2026-05-03 23:56 32.73211 -117.18367 14 ft 83 kts 287°
2026-05-03 23:56 32.73337 -117.18867 17 ft 46 kts 287°
2026-05-03 23:56 32.73427 -117.19090 17 ft 14 kts 358°
2026-05-03 23:57 32.73483 -117.19005 17 ft 21 kts 93°
2026-05-03 23:57 32.73434 -117.18817 17 ft 24 kts 105°
2026-05-03 23:57 32.73391 -117.18637 14 ft 21 kts 105°
2026-05-03 23:57 32.73354 -117.18483 14 ft 18 kts 103°
2026-05-03 23:58 32.73318 -117.18346 13 ft 16 kts 105°
2026-05-03 23:58 32.73288 -117.18209 13 ft 8 kts 105°
2026-05-03 23:58 32.73275 -117.18159 13 ft 17 kts 106°
2026-05-03 23:58 32.73246 -117.18003 13 ft 18 kts 70°
2026-05-03 23:59 32.73377 -117.17947 13 ft 21 kts 12°
2026-05-03 23:59 32.73414 -117.17887 13 ft 6 kts 111°
2026-05-03 23:59 32.73396 -117.17883 13 ft 0 kts 226°